Location: New Mesquite
(33.1168°N, 96.4336°W)
Time: 06:20:18
(UTC+00:00)

Cosmos 1538 Rocket - Pass Details

Date: 02 July 2022
Orbit: 752 x 791 km, 74.0° (Epoch: 11 August)

Event Time Altitude Azimuth Distance (km) Brightness Sun altitude
Rises 10:34:53 0° 174° (S) 3,237 7.0 -9.0°
Reaches altitude 10° 10:37:26 10° 165° (SSE) 2,307 6.3 -8.6°
Maximum altitude 10:42:09 35° 101° (E) 1,218 5.6 -7.8°
Drops below altitude 10° 10:46:51 10° 36° (NE) 2,297 7.8 -7.0°
Sets 10:49:23 0° 28° (NNE) 3,221 8.4 -6.5°
